Terminal Aerodrome Forecast
Issued by NWS Cleveland, OH

Home | Current Version | Previous Version | Text Only | Print | Product List | Glossary Off
Versions: 1 2 3 4 5 6 7 8 9 10 11 12 13 14 15 16 17 18

551
FTUS41 KCLE 210541
TAFERI
TAF
KERI 210541Z 2106/2206 19018G30KT P6SM SKC
     FM211400 20020G35KT P6SM SCT100 BKN250
     FM212200 22015G25KT P6SM BKN050 OVC150
      TEMPO 2201/2205 4SM SHRA SCT015 OVC025
     FM220500 29015G25KT P6SM VCSH OVC015=

USA.gov is the U.S. government's official web portal to all federal, state and local government web resources and services.